Regional Weather Roundup
Issued by NWS

Home | Current Version | Previous Version | Graphics & Text | Print | Product List | Glossary On
Versions: 1 2 3 4 5 6 7 8 9 10 11 12 13 14 15 16 17 18 19 20 21 22 23 24 25 26 27 28 29 30 31 32 33 34 35 36 37 38 39 40 41 42 43 44 45 46 47 48 49 50
000
ASUS45 KSLC 220110
RWRUT

UTAH REGIONAL WEATHER ROUNDUP
NATIONAL WEATHER SERVICE SALT LAKE CITY UT
700 PM MDT MON MAY 21 2018

UTZ001>011-023>025-220200-

NORTHERN UTAH

CITY           SKY/WX    TMP DP  RH WIND       PRES   REMARKS
BRIGHAM CITY   CLOUDY    71  32  23 E13G23    29.84S
HILL AFB       MOSUNNY   71  36  26 E16G22    29.84F
LOGAN          CLOUDY    69  41  36 SE15      29.86F
OGDEN          PTSUNNY   74  35  24 NE13G20   29.82F
SALT LAKE CITY PTSUNNY   77  42  28 SW9       29.80S
TOOELE VALLEY  LGT RAIN  68  43  40 S14G21    29.88R
WENDOVER       PTSUNNY   76  34  21 CALM      29.82S
HEBER CITY     MOCLDY    68  36  30 N15G22    29.87S
WEST JORDAN    PTSUNNY   72  45  38 NW14      29.84R

$$

UTZ011>015-024>027-220200-

CENTRAL/NORTHEAST UTAH

CITY           SKY/WX    TMP DP  RH WIND       PRES   REMARKS
PROVO AIRPORT  CLOUDY    73  48  40 CALM      29.83S
MOAB/CANYONLAN PTSUNNY   79  20  11 NW12      29.76F
DELTA          PTSUNNY   72  32  23 E7        29.83S
PRICE          PTSUNNY   74  15  10 VRB3      29.90F
ROOSEVELT      CLOUDY    75  21  13 S3        29.89S
VERNAL         CLOUDY    76  27  16 W5        29.87F

$$

UTZ013>016-019>022-027-220200-

SOUTHERN UTAH

CITY           SKY/WX    TMP DP  RH WIND       PRES   REMARKS
BRYCE CANYON   PTSUNNY   62  11  13 S9        29.99F
CEDAR CITY     CLOUDY    66  28  24 SW12      29.88S
MILFORD        CLOUDY    72  22  15 SW17      29.84S
ST GEORGE      MOCLDY    79  31  17 N8        29.74F
HANKSVILLE     CLOUDY    81  16   9 W8        29.79F
BLANDING         N/A     71  35  26 SE25G33   29.97S

$$

REGIONAL REPORTS     COLORADO/ARIZONA

CITY           SKY/WX    TMP DP  RH WIND       PRES   REMARKS
CRAIG, CO      PTSUNNY   70  45  40 CALM      29.93F
GRAND JUNCTION PTSUNNY   81  23  11 VRB3      29.80F
RIFLE, CO      PTSUNNY   78  21  12 W6        29.87S
MONTROSE, CO   CLOUDY    73  28  18 S20       29.90R
CORTEZ, CO     CLOUDY    68  36  30 NE17      29.99R
COLORADO CITY    N/A     70  30  23 NW5       29.89F
PAGE, AZ       CLOUDY    80  17   9 VRB7      29.77F
GRAND CANYON   CLOUDY    65  15  14 SW12G23   29.95S
KINGMAN, AZ      N/A    N/A N/A N/A MISG      29.77F
FLAGSTAFF, AZ  PTSUNNY   62  13  14 S9G20     29.99S

$$

REGIONAL REPORTS    NEVADA/IDAHO/WYOMING

CITY           SKY/WX    TMP DP  RH WIND       PRES   REMARKS
LAS VEGAS, NV  PTSUNNY   82  32  16 SW9       29.69S
ELY, NY        PTSUNNY   54  43  66 CALM      29.96F
ELKO, NV       LGT RAIN  59  43  55 SE18G28   29.92R
POCATELLO, ID  CLOUDY    73  40  30 CALM      29.89S
BURLEY, ID     PTSUNNY   72  51  47 W5        29.86S
FORT BRIDGER,    N/A     62  38  40 N9        30.06S
EVANSTON, WY   PTSUNNY   58  41  53 N14       30.02F
ROCK SPRINGS,  PTSUNNY   65  32  29 NE7       29.98F
KEMMERER, WY   PTSUNNY   55  37  50 NW5       30.04F

$$



USA.gov is the U.S. government's official web portal to all federal, state and local government web resources and services.